Location: N�rnberg
(49.4489°N, 11.0797°E)
Time: 17:00:59
(UTC+01:00)

ISS - Pass Details

Date: 23 March 2017
Orbit: 399 x 409 km, 51.6° (Epoch: 25 March)

Event Time Altitude Azimuth Distance (km) Brightness Sun altitude
Exits shadow 04:30:08 17° 177° (S) 1,108 -1.8 -16.9°
Drops below altitude 10° 04:31:20 10° 161° (SSE) 1,468 -1.0 -16.8°
Sets 04:33:38 0° 147° (SSE) 2,325 0.2 -16.4°
